| time (UTC) | temp F | wind direction | speed MPH | gust MPH | rain 1hr in | rain 24hr in | rain mn in | humidity % | barometer mb |
| 20260504021503 | 51 | 81 | 0.0 | 2.0 | 0.00 | 0.00 | 0.00 | 94 | 1014.9 |
| 20260504020003 | 51 | 88 | 1.0 | 4.0 | 0.00 | 0.00 | 0.00 | 94 | 1015.2 |
| 20260504014503 | 51 | 105 | 1.0 | 2.0 | 0.00 | 0.00 | 0.00 | 94 | 1015.4 |
| 20260504013003 | 51 | 90 | 0.0 | 2.0 | 0.00 | 0.00 | 0.00 | 94 | 1015.1 |
| 20260504011503 | 51 | 91 | 1.0 | 4.0 | 0.00 | 0.00 | 0.00 | 94 | 1015.3 |
| 20260504010003 | 51 | 97 | 1.0 | 4.0 | 0.00 | 0.00 | 0.00 | 94 | 1015.4 |
| 20260504004503 | 52 | 92 | 1.0 | 4.0 | 0.00 | 0.00 | 0.00 | 93 | 1015.4 |
| 20260504003003 | 52 | 97 | 1.0 | 4.0 | 0.00 | 0.00 | 0.00 | 93 | 1015.4 |
| 20260504001503 | 53 | 99 | 2.0 | 4.0 | 0.00 | 0.00 | 0.00 | 93 | 1015.7 |
| 20260504000003 | 53 | 94 | 1.0 | 4.0 | 0.00 | 0.00 | 0.00 | 93 | 1015.6 |
| 20260503234503 | 53 | 95 | 1.0 | 4.0 | 0.00 | 0.00 | 0.00 | 92 | 1016.0 |
| 20260503233003 | 53 | 106 | 1.0 | 2.0 | 0.00 | 0.00 | 0.00 | 92 | 1015.8 |
| 20260503231503 | 53 | 111 | 1.0 | 2.0 | 0.00 | 0.00 | 0.00 | 92 | 1015.6 |
| 20260503230003 | 53 | 112 | 1.0 | 4.0 | 0.00 | 0.00 | 0.00 | 91 | 1015.6 |
| 20260503224503 | 54 | 95 | 1.0 | 4.0 | 0.00 | 0.00 | 0.00 | 91 | 1015.7 |
| 20260503223003 | 54 | 108 | 1.0 | 4.0 | 0.00 | 0.00 | 0.00 | 91 | 1016.1 |
| 20260503221503 | 54 | 96 | 1.0 | 4.0 | 0.00 | 0.00 | 0.00 | 91 | 1015.8 |
| 20260503220003 | 54 | 104 | 1.0 | 4.0 | 0.00 | 0.00 | 0.00 | 90 | 1015.7 |
| 20260503214503 | 55 | 92 | 1.0 | 2.0 | 0.00 | 0.00 | 0.00 | 90 | 1016.0 |
| 20260503213003 | 55 | 99 | 0.0 | 2.0 | 0.00 | 0.00 | 0.00 | 89 | 1015.8 |
| 20260503211503 | 55 | 110 | 1.0 | 2.0 | 0.00 | 0.00 | 0.00 | 88 | 1015.3 |
| 20260503210003 | 56 | 113 | 1.0 | 4.0 | 0.00 | 0.00 | 0.00 | 87 | 1015.3 |
| 20260503204503 | 56 | 127 | 2.0 | 4.0 | 0.00 | 0.00 | 0.00 | 86 | 1015.2 |
| 20260503203003 | 57 | 118 | 2.0 | 6.0 | 0.00 | 0.00 | 0.00 | 84 | 1014.9 |
| 20260503201503 | 57 | 128 | 3.0 | 6.0 | 0.00 | 0.00 | 0.00 | 83 | 1014.9 |
| 20260503200003 | 58 | 123 | 2.0 | 4.0 | 0.00 | 0.00 | 0.00 | 83 | 1014.6 |
| 20260503194503 | 59 | 115 | 3.0 | 6.0 | 0.00 | 0.00 | 0.00 | 81 | 1014.3 |
| 20260503193003 | 59 | 120 | 3.0 | 9.0 | 0.00 | 0.00 | 0.00 | 79 | 1014.3 |
| 20260503191503 | 60 | 119 | 4.0 | 7.0 | 0.00 | 0.00 | 0.00 | 78 | 1014.2 |
| 20260503190003 | 61 | 131 | 4.0 | 7.0 | 0.00 | 0.00 | 0.00 | 76 | 1013.8 |
| 20260503184503 | 61 | 125 | 4.0 | 11.0 | 0.00 | 0.00 | 0.00 | 73 | 1014.0 |
| 20260503183003 | 63 | 119 | 4.0 | 9.0 | 0.00 | 0.00 | 0.00 | 72 | 1013.5 |
| 20260503181504 | 63 | 149 | 5.0 | 13.0 | 0.00 | 0.00 | 0.00 | 72 | 1013.6 |
| 20260503180003 | 63 | 116 | 4.0 | 9.0 | 0.00 | 0.00 | 0.00 | 71 | 1013.7 |
| 20260503174503 | 64 | 105 | 4.0 | 9.0 | 0.00 | 0.00 | 0.00 | 67 | 1013.7 |
| 20260503173003 | 64 | 144 | 5.0 | 11.0 | 0.00 | 0.00 | 0.00 | 66 | 1013.5 |
| 20260503171503 | 64 | 141 | 5.0 | 14.0 | 0.00 | 0.00 | 0.00 | 67 | 1013.4 |
| 20260503081503 | 59 | 353 | 1.0 | 4.0 | 0.00 | 0.00 | 0.00 | 100 | 1015.0 |
| 20260503071503 | 55 | 10 | 1.0 | 4.0 | 0.00 | 0.00 | 0.00 | 100 | 1014.8 |
| 20260503054503 | 54 | 45 | 0.0 | 2.0 | 0.00 | 0.00 | 0.00 | 100 | 1014.4 |
| 20260503053003 | 55 | 43 | 0.0 | 2.0 | 0.00 | 0.00 | 0.00 | 100 | 1014.1 |
| 20260503051503 | 55 | 55 | 0.0 | 2.0 | 0.00 | 0.00 | 0.00 | 100 | 1014.3 |
| 20260503050003 | 54 | 53 | 0.0 | 4.0 | 0.00 | 0.00 | 0.00 | 100 | 1014.3 |
| 20260503044503 | 54 | 65 | 0.0 | 2.0 | 0.00 | 0.00 | 0.00 | 100 | 1014.2 |
| 20260503043003 | 54 | 357 | 1.0 | 4.0 | 0.00 | 0.00 | 0.00 | 100 | 1014.3 |
| 20260503041503 | 54 | 6 | 0.0 | 2.0 | 0.00 | 0.00 | 0.00 | 100 | 1014.2 |
| 20260503040003 | 54 | 350 | 1.0 | 4.0 | 0.00 | 0.00 | 0.00 | 100 | 1014.1 |
| 20260503034503 | 54 | 0 | 0.0 | 2.0 | 0.00 | 0.00 | 0.00 | 100 | 1014.4 |
| 20260503033003 | 54 | 0 | 0.0 | 0.0 | 0.00 | 0.00 | 0.00 | 100 | 1014.2 |
| 20260503031503 | 54 | 22 | 0.0 | 2.0 | 0.00 | 0.00 | 0.00 | 100 | 1014.6 |
| 20260503030003 | 54 | 37 | 0.0 | 2.0 | 0.00 | 0.00 | 0.00 | 100 | 1014.8 |
| 20260503024503 | 54 | 67 | 0.0 | 2.0 | 0.00 | 0.00 | 0.00 | 100 | 1014.4 |
| 20260503023003 | 54 | 0 | 0.0 | 0.0 | 0.00 | 0.00 | 0.00 | 100 | 1014.6 |